www.pogodaiklimat.ru

Погода и климат >> Архив погоды >> Австралия >> Mandora


ПОГОДА в Mandora

  • Прогноз погоды в Mandora
  • Монитор погоды в Mandora
  • Климат города

АРХИВ ПОГОДЫ в Mandora

Время (UTC), дата Ветер
(напр.,м/с)
 
Видим.   Явления Облачность Т
(С)
Тd
(С)
f
(%)
Тe
(С)
Тes
(С)
Комфортность P
(гПа)
Po
(гПа)
Тmin
(С)
Tmax
(С)
R
(мм)
R24
(мм)
S
(см)
07 15.10 В 3 н/о н/о +37.7 -0.6 9 +34 +34 очень
жарко
1010.0 1009.1
09 15.10 СЗ 4 н/о н/о +31.2 +13.0 33 +32 +32 жарко 1010.6 1009.7
10 15.10 З 3 н/о н/о +27.7 +17.5 54 +32 +32 очень
душно
1011.3 1010.4
12 15.10 ЮЗ 4 н/о н/о +24.7 +16.2 59 +28 +28 душно 1012.6 1011.7
13 15.10 ЮЗ 3 н/о н/о +23.4 +14.7 58 +27 +27 душно 1013.2 1012.3 +37.9
15 15.10 ЮЗ 4 н/о н/о +20.9 +12.8 60 +24 +24 комфорт 1013.1 1012.2
16 15.10 ЮЗ 4 н/о н/о +23.2 +12.5 51 +26 +26 жарко 1012.5 1011.6
18 15.10 ЮЗ 4 н/о н/о +20.8 +10.0 50 +23 +23 комфорт 1011.5 1010.6
19 15.10 Ю 4 н/о н/о +21.3 +8.6 44 +22 +22 комфорт 1011.7 1010.8
21 15.10 ЮВ 3 н/о н/о +20.6 +4.2 34 +22 +22 комфорт 1012.2 1011.3
22 15.10 Ю 2 н/о н/о +16.7 +6.5 51 +17 +17 1013.1 1012.2
00 16.10 ЮВ 6 н/о н/о +29.4 +1.0 16 +27 +27 жарко 1013.9 1013.0
01 16.10 ЮВ 7 н/о н/о +32.4 +0.5 13 +29 +29 жарко 1013.8 1012.9 +16.2
03 16.10 В 5 н/о н/о +36.4 -1.5 9 +33 +33 жарко 1012.3 1011.4
04 16.10 ЮВ 4 н/о н/о +37.6 -2.2 8 +34 +34 очень
жарко
1011.4 1010.5
06 16.10 Ю 3 н/о н/о +37.5 +6.1 15 +33 +33 жарко 1009.5 1008.6
07 16.10 СЗ 3 н/о н/о +38.0 -3.7 7 +34 +34 очень
жарко
1009.0 1008.1
09 16.10 СЗ 4 н/о н/о +31.5 +16.3 40 +34 +34 душно 1009.2 1008.3
10 16.10 З 3 н/о н/о +28.1 +16.7 50 +32 +32 душно 1009.8 1008.9
12 16.10 ЮЗ 3 н/о н/о +23.1 +15.7 63 +27 +27 душно 1011.2 1010.3
13 16.10 ЮЗ 3 н/о н/о +22.0 +13.9 60 +25 +25 комфорт 1011.7 1010.8 +38.9
15 16.10 ЮЗ 4 н/о н/о +22.1 +9.3 44 +24 +24 комфорт 1011.5 1010.6
16 16.10 З 2 н/о н/о +21.5 +8.1 42 +23 +23 комфорт 1011.0 1010.1
18 16.10 Ю 1 н/о н/о +15.3 +7.3 59 +17 +17 1010.3 1009.4
19 16.10 ЮЗ 3 н/о н/о +16.9 +3.6 41 +17 +17 1010.3 1009.4
21 16.10 ЮЗ 2 н/о н/о +14.0 +5.4 56 +14 +14 1010.8 1009.9
22 16.10 ЮВ 3 н/о н/о +14.9 +6.5 57 +14 +14 1011.3 1010.4
00 17.10 В 4 н/о н/о +30.7 +2.9 17 +28 +28 жарко 1011.9 1011.0
01 17.10 В 5 н/о н/о +34.3 +2.0 13 +31 +31 жарко 1011.8 1010.9 +13.2
03 17.10 В 5 н/о н/о +37.7 -0.6 9 +34 +34 очень
жарко
1010.9 1010.0
04 17.10 СВ 4 н/о н/о +38.4 0.0 9 +35 +35 очень
жарко
1009.9 1009.0
06 17.10 С 3 н/о н/о +38.3 -0.1 9 +35 +35 очень
жарко
1007.7 1006.8
07 17.10 С 5 н/о н/о +37.5 +3.3 12 +34 +34 очень
жарко
1007.0 1006.1
09 17.10 СЗ 4 н/о н/о +32.1 +12.8 31 +33 +33 жарко 1007.0 1006.1
10 17.10 З 4 н/о н/о +28.2 +16.8 50 +32 +32 душно 1007.4 1006.5
12 17.10 З 4 н/о н/о +24.4 +17.6 66 +28 +28 душно 1008.5 1007.6
13 17.10 ЮЗ 4 н/о н/о +23.3 +17.5 70 +29 +29 душно 1008.9 1008.0 +39.9
15 17.10 ЮЗ 3 н/о н/о +21.1 +15.2 69 +24 +24 комфорт 1008.9 1008.0
16 17.10 ЮЗ 3 н/о н/о +20.3 +13.7 66 +23 +23 комфорт 1008.7 1007.8
18 17.10 З 3 н/о н/о +16.0 +12.0 77 +16 +16 1008.4 1007.5
19 17.10 ЮЗ 4 н/о н/о +19.0 +12.5 66 +20 +20 1008.0 1007.1
21 17.10 ЮЗ 5 н/о н/о +21.1 +15.9 72 +24 +24 комфорт 1008.5 1007.6
22 17.10 З 3 н/о н/о +20.4 +17.0 81 +24 +24 комфорт 1009.6 1008.7
00 18.10 ЮЗ 5 н/о н/о +26.3 +16.3 54 +30 +30 душно 1010.4 1009.5
01 18.10 З 5 н/о н/о +29.2 +15.7 44 +32 +32 душно 1010.1 1009.2 +15.8
03 18.10 СЗ 7 н/о н/о +29.4 +19.7 56 +35 +35 очень
душно
1010.3 1009.4
04 18.10 СЗ 6 н/о н/о +29.5 +19.8 56 +36 +36 очень
душно
1009.8 1008.9
06 18.10 З 7 н/о н/о +30.0 +20.0 55 +36 +36 очень
душно
1008.3 1007.4
07 18.10 СЗ 6 н/о н/о +29.0 +20.4 60 +36 +36 очень
душно
1008.7 1007.8
09 18.10 СЗ 7 н/о н/о +26.4 +20.7 71 +33 +33 очень
душно
1009.7 1008.8
10 18.10 СЗ 5 н/о н/о +24.7 +20.6 78 +31 +31 очень
душно
1010.2 1009.3
12 18.10 СЗ 3 н/о н/о +23.3 +19.2 78 +30 +30 очень
душно
1011.2 1010.3
13 18.10 СЗ 4 н/о н/о +23.3 +20.1 82 +30 +30 очень
душно
1011.6 1010.7 +31.1
15 18.10 СЗ 3 н/о н/о +22.5 +19.9 85 +29 +29 очень
душно
1011.6 1010.7
16 18.10 СЗ 3 н/о н/о +22.0 +19.7 87 +28 +28 душно 1011.3 1010.4
18 18.10 З 3 н/о н/о +21.9 +20.0 89 +28 +28 душно 1010.8 1009.9
19 18.10 З 3 н/о н/о +21.5 +19.8 90 +27 +27 душно 1010.6 1009.7
21 18.10 штиль 0 н/о н/о +18.7 +17.4 92 +20 +20 1011.2 1010.3
22 18.10 ЮВ 1 н/о н/о +18.5 +17.5 94 +21 +21 комфорт 1011.8 1010.9
00 19.10 З 4 н/о н/о +26.9 +21.0 70 +34 +34 очень
душно
1013.3 1012.4
01 19.10 ЮЗ 3 н/о н/о +29.1 +19.4 56 +35 +35 очень
душно
1013.4 1012.5 +18.0
03 19.10 СЗ 5 н/о н/о +30.7 +21.2 57 +38 +38 очень
душно
1012.8 1011.9
04 19.10 СЗ 4 н/о н/о +31.0 +21.2 56 +39 +39 очень
душно
1012.0 1011.1
06 19.10 СЗ 6 н/о н/о +30.0 +21.7 61 +38 +38 очень
душно
1010.8 1009.9
07 19.10 СЗ 6 н/о н/о +29.4 +21.9 64 +38 +38 очень
душно
1010.3 1009.4
09 19.10 СЗ 4 н/о н/о +27.5 +21.5 70 +35 +35 очень
душно
1010.6 1009.7
10 19.10 СЗ 4 н/о н/о +25.6 +21.5 78 +33 +33 очень
душно
1011.2 1010.3
12 19.10 З 3 н/о н/о +24.0 +21.5 86 +31 +31 очень
душно
1012.8 1011.9
13 19.10 З 2 н/о н/о +22.3 +20.4 89 +29 +29 очень
душно
1013.3 1012.4 +33.5
15 19.10 З 3 н/о н/о +21.1 +20.1 94 +26 +26 душно 1013.0 1012.1
16 19.10 Ю 2 н/о н/о +20.9 +20.1 95 +26 +26 душно 1013.0 1012.1
18 19.10 штиль 0 н/о н/о +18.0 +17.2 95 +18 +18 1011.8 1010.9
19 19.10 ЮВ 1 н/о н/о +16.9 +16.1 95 +18 +18 1011.7 1010.8
21 19.10 штиль 0 н/о н/о +16.1 +15.9 99 +16 +16 1012.8 1011.9
22 19.10 ЮВ 3 н/о н/о +17.3 +17.0 98 +17 +17 1013.3 1012.4
00 20.10 В 5 н/о н/о +29.2 +5.3 22 +28 +28 жарко 1014.5 1013.6
01 20.10 В 6 н/о н/о +32.0 +3.9 17 +30 +30 жарко 1014.7 1013.8 +15.4
03 20.10 В 5 н/о н/о +36.3 +4.6 14 +33 +33 жарко 1013.2 1012.3
04 20.10 В 5 н/о н/о +37.6 +4.5 13 +35 +35 очень
жарко
1012.3 1011.4
06 20.10 С 5 н/о н/о +37.3 +7.3 16 +35 +35 очень
жарко
1010.6 1009.7
07 20.10 СЗ 5 н/о н/о +36.3 +6.5 16 +34 +34 очень
жарко
1010.1 1009.2
09 20.10 СЗ 5 н/о н/о +31.9 +12.7 31 +33 +33 жарко 1010.2 1009.3
10 20.10 З 4 н/о н/о +28.7 +16.9 49 +32 +32 душно 1011.1 1010.2
12 20.10 З 4 н/о н/о +26.0 +19.2 66 +31 +31 очень
душно
1012.6 1011.7
13 20.10 З 4 н/о н/о +24.9 +18.8 69 +30 +30 душно 1012.9 1012.0 +38.9
15 20.10 З 3 н/о н/о +22.0 +17.8 77 +27 +27 душно 1012.6 1011.7
16 20.10 З 3 н/о н/о +21.5 +17.5 78 +26 +26 душно 1011.9 1011.0
18 20.10 З 3 н/о н/о +19.8 +15.9 78 +22 +22 комфорт 1011.0 1010.1
19 20.10 ЮЗ 3 н/о н/о +19.4 +14.0 71 +21 +21 комфорт 1011.0 1010.1
21 20.10 штиль 0 н/о н/о +15.6 +12.4 81 +15 +15 1011.8 1010.9
22 20.10 ЮЗ 3 н/о н/о +16.8 +12.7 77 +17 +17 1012.2 1011.3
00 21.10 ЮВ 3 н/о н/о +28.3 +12.2 37 +29 +29 жарко 1013.5 1012.6
01 21.10 СВ 2 н/о н/о +30.3 +12.2 33 +31 +31 жарко 1013.4 1012.5 +15.6
03 21.10 СЗ 4 н/о н/о +35.0 +14.3 29 +36 +36 очень
жарко
1011.6 1010.7
04 21.10 СЗ 5 н/о н/о +33.8 +14.3 31 +35 +35 очень
жарко
1010.8 1009.9
06 21.10 СЗ 6 н/о н/о +31.5 +18.1 45 +36 +36 очень
душно
1009.8 1008.9
07 21.10 СЗ 6 н/о н/о +31.4 +18.4 46 +36 +36 очень
душно
1009.2 1008.3
09 21.10 СЗ 6 н/о н/о +28.7 +19.6 58 +35 +35 очень
душно
1009.3 1008.4
10 21.10 СЗ 4 н/о н/о +26.7 +19.8 66 +33 +33 очень
душно
1009.8 1008.9
12 21.10 З 4 н/о н/о +25.4 +20.0 72 +31 +31 очень
душно
1010.8 1009.9
13 21.10 З 3 н/о н/о +24.3 +20.0 77 +30 +30 очень
душно
1010.8 1009.9 +36.9
15 21.10 З 2 н/о н/о +21.5 +19.1 86 +26 +26 душно 1010.6 1009.7
16 21.10 ЮЗ 3 н/о н/о +21.7 +20.2 91 +27 +27 душно 1010.1 1009.2
18 21.10 З 3 н/о н/о +21.2 +17.8 81 +25 +25 комфорт 1009.3 1008.4
19 21.10 З 4 н/о н/о +21.6 +18.6 83 +26 +26 душно 1009.2 1008.3
21 21.10 З 5 н/о н/о +22.2 +19.0 82 +28 +28 душно 1009.7 1008.8
22 21.10 ЮЗ 4 н/о н/о +22.5 +19.1 81 +28 +28 душно 1010.3 1009.4
00 22.10 Ю 6 н/о н/о +32.9 +4.6 17 +30 +30 жарко 1010.7 1009.8
01 22.10 Ю 5 н/о н/о +37.1 -2.6 8 +33 +33 жарко 1011.0 1010.1 +20.1
03 22.10 ЮЗ 5 н/о н/о +40.8 -3.8 6 +37 +37 очень
жарко
1009.7 1008.8
04 22.10 Ю 6 н/о н/о +42.2 -0.7 7 +38 +38 очень
жарко
1008.6 1007.7

 

Местоположение метеостанции Mandora (Западная Австралия, Австралия): широта -19.73 долгота 120.85 высота над уровнем моря 8 м.

В архиве по умолчанию представлена погода в Mandora за последнюю неделю. Архивные данные за месяц целиком и за предыдущие месяцы, начиная с января 2011 года, Вы можете получить, выбрав интересующий диапазон дат из раскрывающегося списка и нажав кнопку "Ввод!".


*Определитесь, кто Вы:
робот инопланетянин человек

Внимание! Время в таблицах - всемирное. Для получения местного времени необходимо прибавить поправку, которая в Mandora равна 8 ч.

Смотрите также архив погоды в соседних городах и на ближайших метеорологических станциях:

Погода в Marble Bar (Западная Австралия, Австралия) (198 км)
Погода в Port Hedland Apardoo (Западная Австралия, Австралия) (242 км)
Погода в Broome Airport (Западная Австралия, Австралия) (246 км)
Погода в West Roebuck (Западная Австралия, Австралия) (256 км)
Погода в Telfer Aero (Западная Австралия, Австралия) (262 км)
Погода в Rowley Shoals (Западная Австралия, Австралия) (316 км)
Погода в Curtin Aero (Западная Австралия, Австралия) (394 км)
Погода в Derby Aero (Северная территория, Австралия) (397 км)
Погода в Roebourne Aero (Западная Австралия, Австралия) (402 км)
Погода в Newman Aero (Западная Австралия, Австралия) (423 км)

Пояснения к столбцам:

Ветер - указаны скорость ветра в м/с - средняя за 10 мин, порывы в срок и между сроками (в фигурных скобках) и направление, откуда дует ветер: С - северный, СВ - северо-восточный, В - восточный, ЮВ - юго-восточный, Ю - южный, ЮЗ - юго-западный, З - западный, СЗ - северо-западный.
Видимость - горизонтальная дальность видимости в метрах или километрах. При видимости от 1 до 10 км при отсутствии осадков обычно наблюдается дымка, при ухудшении видимости до 1 км и менее - туман. В сухую погоду видимость может ухудшаться дымом, пылью или мглою.
Явления - указаны атмосферные явления, наблюдавшиеся в срок или в последний час перед сроком; фигурными скобками обозначены явления, наблюдавшиеся между сроками (за 1-3 часа до срока); квадратными скобками обозначены град или гололедные отложения с указанием их диаметра в мм.
Облачность - указаны через наклонную черту общая и нижняя облачность в баллах и высота нижней границы облаков в метрах; квадратными скобками обозначены формы облаков: Ci - перистые, Cs - перисто-слоистые, Cc - перисто-кучевые, Ac - высококучевые, As - высокослоистые, Sc - слоисто-кучевые, Ns - слоисто-дождевые, Cu - кучевые, Cb - кучево-дождевые. Подробнее классификацию облаков см. в Атласе облаков (PDF).
T - Температура воздуха - температура, измеренная на высоте 2 м над землей.
Td - Температура точки росы - температура, при понижении до которой содержащийся в воздухе водяной пар достигнет насыщения.
f - Относительная влажность воздуха - влажноcть воздуха, измеренная на высоте 2 м над землей.
Te - Эффективная температура - температура, которую ощущает одетый по сезону человек в тени. Характеристика душности погоды. При расчете учитывается влияние влажности воздуха и скорости ветра на теплоощущения человека.
Tes - Эффективная температура на солнце - температура, которую ощущает человек, с поправкой на солнечный нагрев. Характеристика знойности погоды. Зависит от высоты солнца над горизонтом, облачности и скорости ветра. Ночью, в пасмурную погоду, а также при ветре 12 м/с и более поправка равна нулю.
P - Атмосферное давление - приведенное к уровню моря атмосферное давление.
Po - Атмосферное давление - измеренное на уровне метеостанции атмосферное давление.
Tmin - Минимальная температура - минимум температуры воздуха на высоте 2 м над землей.
Tmax - Максимальная температура - максимум температуры воздуха на высоте 2 м над землей.
R - Количество осадков - Количество выпавших осадков за период времени, мм. При наведении курсора мыши на число - период времени, за который выпало указанное количество осадков.
R24 - Количество осадков - Количество выпавших осадков за 24 часа, мм.
S - Снежный покров - Высота снежного покрова, см. При наведении курсора мыши на число - состояние снежного покрова и степень покрытия местности в баллах.